Powrót do katalogu

SL-12 DEB

LostHEO
NORAD 41684·DEBRIS·🇷🇺 Russia

Wystrzelony Oct 26, 2007 z Baikonur Cosmodrome

Loading…

Następne Przeloty (najbliższe 24 godziny)

TLE

NieaktualneSource: Space-Track

Epoka: Mar 23, 2021, 05:00 UTC

1 41684U 07052R   21082.20872821  .00015048  00000-0  16253+0 0  9994
2 41684  63.9487 135.6841 5282084  26.9700 352.8279  4.66554616110958

Śledź SL-12 DEB w czasie rzeczywistym z AllMySat

Download on the App Store